This is the latest recevied weather packets stored in our database for station/object JI6FPP-13. If no packets are shown the sender has not sent any weather packets the latest 1 day(s).
| Time | Temp. | Humidity | Pressure | Rain* | Wind** | Luminosity | Snow |
|---|---|---|---|---|---|---|---|
| 1778052379 | 26.67° C | 20% | 1011 hPa | 0 mm | - | - | - |
| 1778051179 | 26.67° C | 20% | 1011 hPa | 0 mm | - | - | - |
| 1778050580 | 26.67° C | 20% | 1011 hPa | 0 mm | - | - | - |
| 1778049980 | 26.67° C | 20% | 1010 hPa | 0 mm | - | - | - |
| 1778049379 | 27.22° C | 20% | 1010 hPa | 0 mm | - | - | - |
| 1778048779 | 26.67° C | 17% | 1010 hPa | 0 mm | - | - | - |
| 1778047580 | 26.67° C | 10% | 1011 hPa | 0 mm | - | - | - |
| 1778046980 | 27.78° C | 17% | 1011 hPa | 0 mm | - | - | - |
| 1778046380 | 27.22° C | 12% | 1010 hPa | 0 mm | - | - | - |
| 1778045780 | 27.22° C | 9% | 1011 hPa | 0 mm | - | - | - |
| 1778045180 | 27.22° C | 10% | 1011 hPa | 0 mm | - | - | - |
| 1778043379 | 27.78° C | 14% | 1010 hPa | 0 mm | - | - | - |
| 1778041580 | 27.22° C | 20% | 1012 hPa | 0 mm | - | - | - |
| 1778040380 | 25.56° C | 21% | 1013 hPa | 0 mm | - | - | - |
| 1778039780 | 26.11° C | 21% | 1013 hPa | 0 mm | - | - | - |
| 1778039179 | 25.56° C | 20% | 1013 hPa | 0 mm | - | - | - |
| 1778037979 | 26.11° C | 17% | 1014 hPa | 0 mm | - | - | - |
| 1778036779 | 25.56° C | 13% | 1013 hPa | 0 mm | - | - | - |
| 1778036180 | 26.11° C | 17% | 1013 hPa | 0 mm | - | - | - |
| 1778035579 | 25.56° C | 19% | 1013 hPa | 0 mm | - | - | - |
| 1778034979 | 25.56° C | 20% | 1013 hPa | 0 mm | - | - | - |
| 1778034379 | 24.44° C | 21% | 1013 hPa | 0 mm | - | - | - |
| 1778033179 | 24.44° C | 15% | 1013 hPa | 0 mm | - | - | - |
| 1778031980 | 25° C | 14% | 1014 hPa | 0 mm | - | - | - |
| 1778031380 | 25.56° C | 14% | 1014 hPa | 0 mm | - | - | - |
* Rain latest hour (hover to see other rain measurements)
** Current wind speed in m/s (hover to see current wind gust speed)